Regional Weather Roundup
Issued by NWS New Orleans/Baton Rouge, LA

Home | Current Version | Previous Version | Text Only | Print | Product List | Glossary Off
Versions: 1 2 3 4 5 6 7 8 9 10 11 12 13 14 15 16 17 18 19 20 21 22 23 24 25 26 27 28 29 30 31 32 33 34 35 36 37 38 39 40 41 42 43 44 45 46 47 48 49 50

946
ASUS44 KLIX 241705
RWRLIX
NEW ORLEANS REGIONAL WEATHER ROUNDUP
NATIONAL WEATHER SERVICE NEW ORLEANS LA
1100 AM CST MON NOV 24 2014

NOTE: "FAIR" INDICATES FEW OR NO CLOUDS BELOW 12,000 FEET WITH NO
      SIGNIFICANT WEATHER AND/OR OBSTRUCTIONS TO VISIBILITY.
      SKY/WX - SKY CONDITION AND SIGNIFICANT WEATHER.
      TMP - AIR TEMPERATURE.     DP    - DEWPOINT TEMPERATURE.
      RH  - RELATIVE HUMIDITY.   PRES  - PRESSURE.
      HI  - HEAT INDEX.          WCI   - WIND CHILL INDEX.

*  THESE STATIONS ARE NOT NWS OR FAA STATIONS AND ARE NOT UNDER
   NWS QUALITY CONTROL.

LAZ038-040-048-061>063-065>067-069-241800-
SOUTHEAST LOUISIANA

CITY           SKY/WX    TMP DP  RH WIND       PRES   REMARKS
N.O. AUDUBON     N/A     70  58  65 MISG        N/A
N.O. INTL ARPT PTSUNNY   68  55  63 NW15G22   29.90R
N.O. LAKEFRONT SUNNY     64  57  78 NW13      29.90S
N.O. DOWNTOWN*   N/A     68  55  64 NW10G17   29.91S
SLIDELL        SUNNY     72  51  47 N13       29.88S
BATON ROUGE    SUNNY     61  44  53 N9        29.94F
BOOTHVILLE     SUNNY     73  64  73 NW10      29.87F
BELLE CHASSE   PTSUNNY   71  52  50 N14G20    29.89R
BOGALUSA*        N/A     68  52  55 NW8       29.92S
NEW ROADS*       N/A     60  46  59 NW9G16    29.97S
GONZALES*        N/A     63  49  59 NW13G18   29.92F
HAMMOND*       SUNNY     66  48  52 NW10      29.93F
HOUMA*         SUNNY     70  55  60 NW14      29.89F
PORT FOURCHON* SUNNY     70  64  83 NW10      29.91F

$$

MSZ070-080>082-241800-
SOUTHERN MISSISSIPPI

CITY           SKY/WX    TMP DP  RH WIND       PRES   REMARKS
MCCOMB         SUNNY     60  45  57 NW10      29.94R
GULFPORT       SUNNY     74  57  55 N8        29.85F
BILOXI         SUNNY     76  59  56 VRB5      29.85F
PASCAGOULA     SUNNY     77  58  51 NW9       29.84F
STENNIS ARPT*  MOSUNNY   73  54  49 NW12      29.88R

$$

COASTAL OBSERVATIONS
LAKE AND NEARSHORE STATIONS

STATION/POSITION TIME  TEMP    WIND        PRES    WAVE
                       AIR SEA DIR/SP/G            HT/PER
                 (UTC) (F)     (DEG/KT/KT) (MB)    (FT/S)
PASCAGOULA       1700   67     240/  6/  9 1010.4
WAVELAND YACHT   1700   71     340/  9/ 11 1010.6
GRAND ISLE       1700   68 65  350/  8/ 11 1012.3
SOUTHWEST PASS   1700   71                 1012.3
NEW CANAL        1700   63 57  290/  4/ 10 1012.9
SHELL BEACH      1700   63 55  310/ 12/ 13 1011.9

OFFSHORE STATIONS

STATION/POSITION TIME  TEMP    WIND        PRES    WAVE
                       AIR SEA DIR/SP/G            HT/PER
                 (UTC) (F)     (DEG/KT/KT) (MB)    (FT/S)
64 S DAUPHIN ISL 1641   72 72  300/ 14/ 17 1011.9    5/ 8

$$




USA.gov is the U.S. government's official web portal to all federal, state and local government web resources and services.